Regional Weather Roundup
Issued by NWS

Home | Current Version | Previous Version | Text Only | Print | Product List | Glossary Off
Versions: 1 2 3 4 5 6 7 8 9 10 11 12 13 14 15 16 17 18 19 20 21 22 23 24 25 26 27 28 29 30 31 32 33 34 35 36 37 38 39 40 41 42 43 44 45 46 47 48 49 50

000
ASUS43 KMPX 171101
RWRMN
WEATHER ROUNDUP FOR MINNESOTA
NATIONAL WEATHER SERVICE TWIN CITIES/CHANHASSEN MN
600 AM CDT THU APR 17 2014


NOTE: "FAIR" INDICATES FEW OR NO CLOUDS BELOW 12,000 FEET WITH NO
SIGNIFICANT WEATHER AND/OR OBSTRUCTIONS TO VISIBILITY. N/A MEANS
CURRENT SKY AND/OR WEATHER CONDITIONS ARE NOT AVAILABLE.

MNZ060>063-068>070-171200-
   Twin Cities Metro

CITY           SKY/WX    TMP DP  RH WIND       PRES   REMARKS
TWIN CITIES    CLOUDY    29  28  96 NW16      30.10R WCI  17
ST PAUL        CLOUDY    31  28  89 NW14      30.10R WCI  21
CRYSTAL        CLOUDY    30  26  85 NW10      30.11R WCI  21
BLAINE         CLOUDY    32  30  93 NW10      30.10R WCI  24
EDEN PRAIRIE   CLOUDY    31  27  85 NW10      30.10R WCI  22
LAKEVILLE      CLOUDY    28  27  93 NW16      30.08R WCI  17
SOUTH ST PAUL  CLOUDY    33  32  95 N10G18    30.09R WCI  25
LAKE ELMO      CLOUDY    32  30  93 N9        30.08R WCI  24
$$
MNZ001>005-007-008-013>017-022>024-027-028-171200-
   Northwest Minnesota

CITY           SKY/WX    TMP DP  RH WIND       PRES   REMARKS
BEMIDJI        CLEAR     17   8  66 NW5       30.25R WCI  10
HALLOCK        CLOUDY    21  12  68 N6        30.34S WCI  14
ROSEAU         CLEAR     19  10  68 NE6       30.32R WCI  11
WARROAD        CLEAR     19   7  58 N8        30.32R WCI   9
THIEF RVR FALL CLEAR     25   9  50 NE8       30.30S WCI  16
CROOKSTON      CLEAR     21  18  86 N7        30.32R WCI  13
FOSSTON        CLEAR     18  12  79 N6        30.28R WCI   9
DETROIT LAKES  CLEAR     21  18  86 NW6       30.25R WCI  14
MOORHEAD       CLEAR     25  21  86 N8        30.29S WCI  16
PARK RAPIDS    CLEAR     23  14  68 N8        30.21R WCI  14
$$
MNZ006-009>011-018-025>026-171200-
   North Central Minnesota

CITY           SKY/WX    TMP DP  RH WIND       PRES   REMARKS
BAUDETTE       CLEAR     19   6  57 N3        30.29S
FLAG ISLAND    CLEAR     16   5  62 N7        30.32R WCI   6
INTL FALLS     CLEAR     20   8  60 N6        30.27R WCI  12
WASKISH        CLEAR     19   9  63 N3        30.27S
BIG FORK       CLOUDY    27  16  63 N6        30.23S WCI  20
LONGVILLE      CLOUDY   N/A N/A N/A N5        30.20S
GRAND RAPIDS   CLOUDY    23  18  80 N9G17     30.19R WCI  13
CRANE LAKE     CLOUDY    23  18  80 N3        30.26S
ORR            CLOUDY    23  16  74 CALM      30.21R
COOK           FLURRIES  23  19  86 N3        30.21S
$$
MNZ012-019>021-037-171200-
   Northeast Minnesota

CITY           SKY/WX    TMP DP  RH WIND       PRES   REMARKS
DULUTH         FLURRIES  29  25  85 NE9G22    30.11R WCI  20
ELY            FLURRIES  21  19  93 N5        30.17R WCI  15
HIBBING        CLOUDY    26  20  77 N10       30.18R WCI  16
EVELETH        CLOUDY    27  21  80 N7G16     30.17S WCI  19
DULUTH HARBOR  CLOUDY    30  28  93 NE20      30.14S WCI  18
TWO HARBORS    LGT SNOW  28  23  80 NE13      30.10S WCI  18
SILVER BAY     LGT SNOW  28  28 100 NE13G21   30.11S WCI  18
GRAND MARAIS     N/A     30  27  88 NE17G26   30.19F WCI  18
G MARAIS ARPRT LGT SNOW  25  19  80 NE16      30.14F WCI  12
$$
MNZ029>031-032-039>041-046>048-054>057-064-171200-
   West Central Minnesota

CITY           SKY/WX    TMP DP  RH WIND       PRES   REMARKS
FERGUS FALLS   CLEAR     21  18  86 N7        30.24S WCI  13
WHEATON        CLEAR     25  21  86 NW5       30.28R WCI  19
MORRIS         CLEAR     19  16  86 N9        30.23R WCI   9
ALEXANDRIA     CLEAR     21  16  81 N8        30.21R WCI  11
ELBOW LAKE     FAIR      20  17  88 N6        30.24R WCI  13
WADENA         CLEAR     19  16  86 N8        30.21S WCI   9
GLENWOOD       CLEAR     21  18  86 N10       30.20R WCI  10
APPLETON       CLEAR     21  18  86 N10       30.24R WCI  10
BENSON         CLEAR     19  16  86 N8        30.22R WCI   9
ORTONVILLE     FAIR      19  16  86 NW7       30.25R WCI  10
MADISON        CLEAR     25  19  80 N12       30.25R WCI  14
WILLMAR        FAIR      23  18  80 N13       30.21R WCI  11
$$
MNZ033>034-036-042>043-049>051-058-059-171200-
   Central Minnesota

CITY           SKY/WX    TMP DP  RH WIND       PRES   REMARKS
ST CLOUD       CLOUDY    27  21  78 N9G17     30.16R WCI  18
SAUK CENTRE    FAIR      21  17  84 N7        30.20R WCI  12
PAYNESVILLE    MOCLDY    21  18  85 NW7       30.19R WCI  13
AITKIN         CLOUDY    28  21  74 N10       30.16R WCI  19
PINE RIVER     CLOUDY    25  19  80 N9        30.22R WCI  15
BRAINERD       CLOUDY    30  20  66 N9        30.18R WCI  22
STAPLES        CLOUDY    23  18  80 N9        30.20R WCI  13
LONG PRAIRIE   MOCLDY    19  16  86 NW9       30.19R WCI   9
LITTLE FALLS   CLOUDY    27  19  74 N8        30.18R WCI  18
LITCHFIELD     CLOUDY    25  23  93 NW13      30.17R WCI  13
BUFFALO        CLOUDY    27  23  83 NW10G17   30.15R WCI  17
MAPLE LAKE     CLOUDY    28  24  86 N14       30.16R WCI  16
$$
MNZ037-044-045-052-053-171200-
   East Central Minnesota

CITY           SKY/WX    TMP DP  RH WIND       PRES   REMARKS
PRINCETON      CLOUDY    28  23  80 NW10      30.14R WCI  19
MORA           CLOUDY    27  23  86 N8        30.14R WCI  18
CAMBRIDGE      CLOUDY    30  23  74 N8        30.10R WCI  23
RUSH CITY      CLOUDY    30  27  89 N10       30.10R WCI  21
MOOSE LAKE     CLOUDY    28  23  80 N10       30.12R WCI  19
HINCKLEY       CLOUDY    30  28  93 N12       30.11R WCI  21
CLOQUET        CLOUDY    25  23  93 N10       30.12S WCI  15
MCGREGOR       CLOUDY    28  23  80 N12       30.16R WCI  18
$$
MNZ071>073-080-081-089-090-097-098-171200-
   Southwest Minnesota

CITY           SKY/WX    TMP DP  RH WIND       PRES   REMARKS
MONTEVIDEO     CLEAR     21  18  86 N13       30.24R WCI   9
GRANITE FALLS  CLEAR     22  17  83 NW9       30.23R WCI  11
CANBY          CLEAR     21  19  91 NW9       30.24S WCI  10
MARSHALL       CLEAR     19  14  79 N13       30.21R WCI   7
REDWOOD FALLS  CLEAR     22  17  81 NW14      30.19R WCI   9
OLIVIA         CLEAR     21  18  86 NW9       30.18S WCI  11
PIPESTONE        N/A     19  16  86 NW6       30.20R WCI  11
WINDOM         CLEAR     21  19  93 NW16      30.17R WCI   7
WORTHINGTON    CLEAR     21  16  79 NW13      30.19R WCI   9
JACKSON        CLEAR     25  21  86 NW15      30.16R WCI  12
TRACY          CLEAR     22  19  89 NW12      30.20R WCI  10
SLAYTON        CLEAR     21  19  93 NW14      30.19R WCI   8
$$
MNZ065>067-074>077-082>085-091>093-171200-
   South Central Minnesota

CITY           SKY/WX    TMP DP  RH WIND       PRES   REMARKS
MANKATO        CLOUDY    28  25  86 NW16G25   30.13R WCI  17
NEW ULM        PTCLDY    25  21  86 NW16      30.16R WCI  12
ST JAMES       PTCLDY    27  21  80 NW13      30.17R WCI  16
FAIRMONT       CLOUDY    27  21  80 NW18      30.16R WCI  13
GLENCOE        CLOUDY    29  23  78 NW15G22   30.13R WCI  18
FARIBAULT      CLOUDY    34  28  80 NW13      30.08R WCI  25
OWATONNA       CLOUDY    30  28  93 NW20      30.08R WCI  18
WASECA         CLOUDY    34  32  93 NW18      30.11R WCI  23
ALBERT LEA     CLOUDY    30  28  93 NW14G20   30.07R WCI  20
$$
MNZ078>079-086>088-094>096-171200-
   Southeast Minnesota

CITY           SKY/WX    TMP DP  RH WIND       PRES   REMARKS
ROCHESTER      CLOUDY    32  29  88 NW20      30.01R FOG     WCI  20
RED WING       CLOUDY    34  30  86 N9        30.04R FOG     WCI  26
STANTON        CLOUDY    32  30  92 NW15      30.06R WCI  21
DODGE CENTER   CLOUDY    34  34 100 NW20      30.03R FOG     WCI  22
WINONA         CLOUDY    43  36  75 NW14G21   29.97R
AUSTIN         CLOUDY    30  28  93 NW16G22   30.05R FOG     WCI  19
PRESTON        FOG       33  33  99 NW16G23   30.00R VSB 1   WCI  23
$$
ABBREVIATIONS USED IN REMARKS
   TC - TEMPERATURES IN CELSIUS
  WCI - WIND CHILL INDEX
   HX - HEAT INDEX
  VSB - VISIBILITY
$$


USA.gov is the U.S. government's official web portal to all federal, state and local government web resources and services.